Regional Weather Roundup
Issued by NWS Albany, NY

Home | Current Version | Previous Version | Text Only | Print | Product List | Glossary On
Versions: 1 2 3 4 5 6 7 8 9 10 11 12 13 14 15 16 17 18 19 20 21 22 23 24 25 26 27 28
000
ASUS41 KALY 250310
RWRALY

NEW YORK STATE HOURLY WEATHER ROUNDUP
NATIONAL WEATHER SERVICE ALBANY NY
1100 PM EDT MON JUL 24 2017

NOTE: "FAIR" INDICATES FEW OR NO CLOUDS BELOW 12,000 FEET WITH NO
SIGNIFICANT WEATHER AND/OR NO OBSTRUCTIONS TO VISIBILITY.

NYZ032-033-038>043-046>054-057>066-NYZ062>081-082-084-250400-
EAST


CITY           SKY/WX    TMP DP  RH WIND       PRES   REMARKS
ALBANY         LGT RAIN  60  57  89 SE3       29.95R FOG
GLENS FALLS    CLOUDY    59  53  80 NE7       29.95S
POUGHKEEPSIE   CLOUDY    61  54  77 CALM      29.95R
NEWBURGH       CLOUDY    61  57  88 E12       29.96R
MONTGOMERY     CLOUDY    62  57  83 N6        29.95R
WHITE PLAINS   CLOUDY    60  55  83 E6        29.94R
ISLIP          CLOUDY    63  58  83 NE7       29.93R
NEW YORK CITY  CLOUDY    66  59  78 NE15      29.94R
CENTRAL PARK   CLOUDY    65  58  78 VRB6      29.96R
$$

NYZ005>009-017-018-044>046-055-056-250400-
CENTRAL


CITY           SKY/WX    TMP DP  RH WIND       PRES   REMARKS
FULTON         CLOUDY    63  60  90 VRB3      29.89R
SYRACUSE       CLOUDY    61  60  97 NE5       29.89R
ROME           MOCLDY    60  58  92 E10       29.91S
ELMIRA         PTCLDY    64  60  87 W5        29.92R
BINGHAMTON     NOT AVBL
$$

NYZ026>034-041>043-087-250400-
NORTH


CITY           SKY/WX    TMP DP  RH WIND       PRES   REMARKS
WATERTOWN      LGT RAIN  63  62  97 SW7       29.87R FOG
FORT DRUM      NOT AVBL
OGDENSBURG     RAIN      58  57  96 NE6G16    29.90R
MASSENA        CLOUDY    58  57  97 NE20      29.93R
SARANAC LAKE   RAIN      54  54 100 NE3       29.92S FOG
PLATTSBURGH    CLOUDY    58  55  90 VRB3      29.96R
$$

NYZ001>004-010>016-019>021-085-250400-
WEST


CITY           SKY/WX    TMP DP  RH WIND       PRES   REMARKS
NIAGARA FALLS  CLOUDY    65  58  78 NW13      29.96R
BUFFALO        CLOUDY    63  60  90 NW8       29.96R
DUNKIRK        CLOUDY    63  61  93 NW9       29.98R
JAMESTOWN      CLOUDY    59  55  88 NW5       30.00R
WELLSVILLE     LGT RAIN  62  58  86 W7        29.98R FOG
ROCHESTER      CLOUDY    65  62  90 W6        29.93R
PENN YAN       CLOUDY    66  60  81 NW7       29.93R
$$

             KEY
       WCI = WIND CHILL INDEX
       VSB = VISIBILITY
       HX  = HEAT INDEX
$$




USA.gov is the U.S. government's official web portal to all federal, state and local government web resources and services.